Weather History for Ravenna, OH

Change the Weather History Date:

Thursday, August 14, 2014

  Actual Average (KCAK) Record (KCAK)
Temperature  
Mean Temperature 58 °F 71 °F  
Max Temperature 65 °F 81 °F 94 °F (1944)
Min Temperature 50 °F 61 °F 45 °F (1964)
Degree Days  
Heating Degree Days 8 0  
Month to date heating degree days 0  
Since 1 June heating degree days 55  
Since 1 July heating degree days 6  
Cooling Degree Days 0 6  
Month to date cooling degree days 93  
Year to date cooling degree days 492  
Since 1 June cooling degree days 450  
Growing Degree Days 8 (Base 50)    
Moisture  
Dew Point 47 °F    
Average Humidity 58    
Maximum Humidity 97    
Minimum Humidity 44    
Precipitation  
Precipitation 0.00 in 0.11 in 2.77 in (2012)
Month to date precipitation 1.65  
Year to date precipitation 25.29  
Snow  
Snow 0.00 in 0.00 in - ()
Month to date snowfall 0.0  
Since 1 June snowfall 0.0  
Since 1 July snowfall 0.0  
Snow Depth -    
Sea Level Pressure  
Sea Level Pressure 29.98 in    
Wind  
Wind Speed 4 mph (WNW)    
Max Wind Speed 16 mph    
Max Gust Speed 23 mph    
Visibility 10 miles    
Events      
T = Trace of Precipitation, MM = Missing Value Source: NWS Daily Summary

Daily Weather History Graph

Daily Weather History Graph

Search for Another Location

Airport:

Trip Planner

Search our weather history database for the weather conditions in past years. The results will help you decide how hot, cold, wet, or windy it might be!

Date:

Astronomy

Aug. 14, 2014 Rise Set
Actual Time 6:33 AM EDT 8:25 PM EDT
Civil Twilight 6:03 AM EDT 8:54 PM EDT
Nautical Twilight 5:27 AM EDT 9:30 PM EDT
Astronomical Twilight 4:48 AM EDT 10:09 PM EDT
Moon 10:44 PM EDT (8/14) 11:11 AM EDT (8/14)
Length of Visible Light 14h 51m
Length of Day
13h 51m
Waning Gibbous, 79% of the Moon is Illuminated
Aug 14
Waning Gibbous
Aug 17
Last Quarter
Aug 25
New
Sep 2
First Quarter
Sep 8
Full

Hourly Weather History & Observations

Time (EDT) Temp. Dew Point Humidity Pressure Visibility Wind Dir Wind Speed Gust Speed Precip Events Conditions
12:18 AM 53.2 °F - N/A% 29.97 in 10.0 mi Calm Calm - N/A   Clear
12:37 AM 52.7 °F - N/A% 29.97 in 10.0 mi Calm Calm - N/A   Scattered Clouds
12:58 AM 54.0 °F - N/A% 29.98 in 10.0 mi Calm Calm - N/A   Mostly Cloudy
1:18 AM 55.6 °F - N/A% 29.98 in 10.0 mi Calm Calm - N/A   Overcast
1:38 AM 55.9 °F - N/A% 29.97 in 10.0 mi Calm Calm - N/A   Overcast
1:58 AM 55.4 °F - N/A% 29.97 in 10.0 mi Calm Calm - N/A   Overcast
2:18 AM 56.5 °F - N/A% 29.96 in 10.0 mi Calm Calm - N/A   Overcast
2:38 AM 54.9 °F - N/A% 29.95 in 10.0 mi Calm Calm - N/A   Scattered Clouds
2:57 AM 55.4 °F - N/A% 29.95 in 10.0 mi Calm Calm - N/A   Mostly Cloudy
3:18 AM 56.3 °F - N/A% 29.95 in 10.0 mi Calm Calm - N/A   Overcast
3:38 AM 56.3 °F - N/A% 29.94 in 10.0 mi Calm Calm - N/A   Mostly Cloudy
3:58 AM 55.4 °F - N/A% 29.94 in 10.0 mi Calm Calm - N/A   Scattered Clouds
4:18 AM 54.3 °F - N/A% 29.93 in 10.0 mi Calm Calm - N/A   Scattered Clouds
4:38 AM 54.5 °F - N/A% 29.93 in 10.0 mi Calm Calm - N/A   Scattered Clouds
4:58 AM 55.0 °F - N/A% 29.93 in 10.0 mi Calm Calm - N/A   Mostly Cloudy
5:18 AM 54.7 °F - N/A% 29.94 in 10.0 mi Calm Calm - N/A   Scattered Clouds
5:38 AM 54.7 °F - N/A% 29.94 in 10.0 mi WNW 3.5 mph - N/A   Clear
5:58 AM 55.0 °F - N/A% 29.94 in 10.0 mi WNW 3.5 mph - N/A   Clear
6:18 AM 55.6 °F - N/A% 29.94 in 10.0 mi WNW 4.6 mph - N/A   Clear
6:38 AM 55.8 °F - N/A% 29.95 in 10.0 mi WNW 3.5 mph - N/A   Clear
6:57 AM 56.3 °F - N/A% 29.96 in 10.0 mi WNW 3.5 mph - N/A   Clear
7:18 AM 57.0 °F - N/A% 29.96 in 10.0 mi WNW 4.6 mph - N/A   Clear
7:38 AM 59.0 °F - N/A% 29.97 in 10.0 mi WNW 4.6 mph - N/A   Clear
7:58 AM 59.9 °F - N/A% 29.98 in 10.0 mi WNW 6.9 mph - N/A   Clear
8:18 AM 60.6 °F - N/A% 29.98 in 10.0 mi WNW 10.4 mph - N/A   Clear
8:38 AM 61.2 °F 58.1 °F 90% 29.99 in 10.0 mi NW 11.5 mph 16.1 mph N/A   Scattered Clouds
8:58 AM 61.5 °F 53.2 °F 74% 29.99 in 10.0 mi NW 11.5 mph 19.6 mph N/A   Scattered Clouds
9:18 AM 61.9 °F 51.6 °F 69% 29.99 in 10.0 mi WNW 10.4 mph 16.1 mph N/A   Mostly Cloudy
9:38 AM 61.9 °F 50.0 °F 65% 30.00 in 10.0 mi NW 6.9 mph 17.3 mph N/A   Scattered Clouds
9:57 AM 62.1 °F 48.7 °F 62% 30.00 in 10.0 mi WNW 16.1 mph 21.9 mph N/A   Scattered Clouds
10:18 AM 62.6 °F 48.4 °F 60% 30.00 in 10.0 mi NW 10.4 mph 19.6 mph N/A   Scattered Clouds
10:38 AM 63.1 °F 49.3 °F 61% 30.00 in 10.0 mi NW 10.4 mph 19.6 mph N/A   Scattered Clouds
10:57 AM 63.0 °F 49.1 °F 61% 30.01 in 10.0 mi WNW 11.5 mph 16.1 mph N/A   Mostly Cloudy
11:18 AM 62.6 °F 47.5 °F 58% 30.01 in 10.0 mi WNW 13.8 mph 18.4 mph N/A   Mostly Cloudy
11:37 AM 63.3 °F 48.2 °F 58% 30.01 in 10.0 mi NW 10.4 mph 18.4 mph N/A   Mostly Cloudy
11:58 AM 63.5 °F 46.8 °F 54% 30.00 in 10.0 mi WNW 13.8 mph 20.7 mph N/A   Scattered Clouds
12:18 PM 64.2 °F 47.5 °F 55% 30.00 in 10.0 mi WNW 11.5 mph 19.6 mph N/A   Scattered Clouds
12:38 PM 64.2 °F 46.2 °F 52% 30.00 in 10.0 mi WNW 13.8 mph 20.7 mph N/A   Scattered Clouds
12:58 PM 64.4 °F 45.9 °F 51% 30.01 in 10.0 mi WNW 13.8 mph 20.7 mph N/A   Clear
1:18 PM 64.4 °F 45.3 °F 50% 30.00 in 10.0 mi WNW 15.0 mph 23.0 mph N/A   Scattered Clouds
1:38 PM 65.3 °F 45.0 °F 48% 30.00 in 10.0 mi WNW 13.8 mph 19.6 mph N/A   Scattered Clouds
1:58 PM 64.2 °F 46.6 °F 53% 30.00 in 10.0 mi NW 8.1 mph 19.6 mph N/A   Scattered Clouds
2:18 PM 64.8 °F 44.6 °F 48% 30.00 in 10.0 mi West 13.8 mph 20.7 mph N/A   Mostly Cloudy
2:38 PM 65.5 °F 46.4 °F 50% 30.00 in 10.0 mi NW 15.0 mph 19.6 mph N/A   Scattered Clouds
2:57 PM 65.7 °F 47.3 °F 51% 30.00 in 10.0 mi West 13.8 mph 20.7 mph N/A   Mostly Cloudy
3:18 PM 64.9 °F 45.1 °F 49% 30.00 in 10.0 mi WNW 10.4 mph 17.3 mph N/A   Mostly Cloudy
3:38 PM 65.3 °F 45.1 °F 48% 30.00 in 10.0 mi WNW 11.5 mph 17.3 mph N/A   Scattered Clouds
3:57 PM 65.1 °F 43.9 °F 46% 30.00 in 10.0 mi WNW 15.0 mph 23.0 mph N/A   Clear
4:18 PM 65.1 °F 43.2 °F 45% 30.00 in 10.0 mi WNW 15.0 mph 20.7 mph N/A   Clear
4:38 PM 65.5 °F 43.0 °F 44% 30.00 in 10.0 mi West 10.4 mph 17.3 mph N/A   Clear
4:58 PM 65.3 °F 44.2 °F 46% 30.00 in 10.0 mi West 13.8 mph 18.4 mph N/A   Scattered Clouds
5:18 PM 64.8 °F 43.2 °F 45% 30.00 in 10.0 mi WNW 11.5 mph 17.3 mph N/A   Scattered Clouds
5:38 PM 63.3 °F 42.8 °F 47% 30.00 in 10.0 mi WNW 10.4 mph 17.3 mph N/A   Scattered Clouds
5:57 PM 63.9 °F 42.6 °F 46% 30.00 in 10.0 mi WNW 8.1 mph - N/A   Scattered Clouds
6:18 PM 63.1 °F 42.6 °F 47% 30.00 in 10.0 mi WNW 6.9 mph - N/A   Scattered Clouds
6:38 PM 63.3 °F 43.3 °F 48% 30.00 in 10.0 mi NW 6.9 mph - N/A   Scattered Clouds
6:58 PM 62.8 °F 43.5 °F 49% 30.01 in 10.0 mi NW 8.1 mph - N/A   Scattered Clouds
7:18 PM 62.6 °F 43.7 °F 50% 30.00 in 10.0 mi NNW 3.5 mph - N/A   Scattered Clouds
7:38 PM 62.1 °F 43.5 °F 51% 30.00 in 10.0 mi West 5.8 mph - N/A   Scattered Clouds
7:58 PM 61.0 °F 45.1 °F 56% 30.00 in 10.0 mi West 4.6 mph - N/A   Clear
8:18 PM 59.7 °F 45.3 °F 59% 30.00 in 10.0 mi Calm Calm - N/A   Clear
8:38 PM 56.5 °F 47.1 °F 71% 30.00 in 10.0 mi Calm Calm - N/A   Clear
8:58 PM 54.7 °F 48.7 °F 80% 30.00 in 5.0 mi Calm Calm - N/A   Haze
9:18 PM 53.6 °F 51.4 °F 92% 30.00 in 10.0 mi Calm Calm - N/A   Clear
9:38 PM 53.6 °F 49.3 °F 85% 30.00 in 10.0 mi Calm Calm - N/A   Scattered Clouds
9:58 PM 53.2 °F 52.5 °F 97% 30.00 in 10.0 mi Calm Calm - N/A   Mostly Cloudy
10:18 PM 52.9 °F - N/A% 30.01 in 10.0 mi Calm Calm - N/A   Scattered Clouds
10:38 PM 51.6 °F - N/A% 30.00 in 7.0 mi Calm Calm - N/A   Clear
10:58 PM 51.3 °F - N/A% 30.00 in 7.0 mi Calm Calm - N/A   Clear
11:18 PM 50.9 °F - N/A% 30.00 in 10.0 mi Calm Calm - N/A   Clear
11:38 PM 51.1 °F - N/A% 30.00 in 10.0 mi Calm Calm - N/A   Clear
11:58 PM 50.9 °F - N/A% 30.00 in 10.0 mi Calm Calm - N/A   Clear